FDX9008 OMDW-FAOR

Flight info

Callsign FDX9008
Flight time N/A
Altitude 38000
Route ANVIX R401 GIDIS G783 UKRAG L710 KUKDI B400 VEDET UL437 DV UM310 VBR UM307 EPSEK UZ33 NESAG UZ7 OKPIT OKPIT1D
Aircraft B77L/H-SDE1E2E3FGHIJ2J3J4J5M1RWXY/LB1D1

Departure

Time 2026-05-06 13:31
Airport Al Maktoum International Airport (OMDW)

Arrival

Time N/A
Airport O.R. Tambo International Airport (FAOR)
Time Latitude Longitude Altitude Speed Heading
2026-05-06 13:08 24.88770 55.15566 167 ft 0 kts 121°
2026-05-06 13:16 24.88779 55.15550 167 ft 4 kts 121°
2026-05-06 13:16 24.88794 55.15524 167 ft 4 kts 121°
2026-05-06 13:17 24.88807 55.15500 167 ft 2 kts 121°
2026-05-06 13:17 24.88816 55.15477 167 ft 4 kts 76°
2026-05-06 13:17 24.88801 55.15458 167 ft 4 kts 28°
2026-05-06 13:17 24.88790 55.15452 167 ft 2 kts 31°
2026-05-06 13:20 24.88791 55.15452 167 ft 0 kts 31°
2026-05-06 13:21 24.88795 55.15455 167 ft 2 kts 31°
2026-05-06 13:21 24.88826 55.15475 167 ft 9 kts 31°
2026-05-06 13:21 24.88899 55.15524 166 ft 16 kts 31°
2026-05-06 13:21 24.88992 55.15587 165 ft 15 kts 32°
2026-05-06 13:22 24.89074 55.15644 164 ft 13 kts 32°
2026-05-06 13:22 24.89134 55.15684 164 ft 6 kts 31°
2026-05-06 13:22 24.89143 55.15690 164 ft 2 kts 31°
2026-05-06 13:22 24.89177 55.15712 164 ft 9 kts 31°
2026-05-06 13:23 24.89240 55.15754 164 ft 12 kts 31°
2026-05-06 13:23 24.89286 55.15784 163 ft 1 kts 31°
2026-05-06 13:23 24.89310 55.15801 163 ft 7 kts 31°
2026-05-06 13:23 24.89368 55.15838 163 ft 11 kts 30°
2026-05-06 13:24 24.89424 55.15881 163 ft 8 kts 51°
2026-05-06 13:24 24.89427 55.15924 163 ft 5 kts 109°
2026-05-06 13:24 24.89403 55.15973 163 ft 10 kts 121°
2026-05-06 13:24 24.89355 55.16052 163 ft 15 kts 127°
2026-05-06 13:25 24.89283 55.16162 163 ft 20 kts 117°
2026-05-06 13:25 24.89219 55.16308 163 ft 21 kts 116°
2026-05-06 13:25 24.89147 55.16439 163 ft 19 kts 120°
2026-05-06 13:25 24.89089 55.16539 163 ft 12 kts 122°
2026-05-06 13:26 24.89051 55.16608 163 ft 10 kts 121°
2026-05-06 13:26 24.89012 55.16678 163 ft 11 kts 121°
2026-05-06 13:26 24.88969 55.16757 163 ft 14 kts 121°
2026-05-06 13:26 24.88914 55.16860 163 ft 18 kts 121°
2026-05-06 13:27 24.88840 55.16987 163 ft 21 kts 122°
2026-05-06 13:27 24.88765 55.17125 163 ft 22 kts 121°
2026-05-06 13:27 24.88679 55.17283 163 ft 26 kts 121°
2026-05-06 13:27 24.88603 55.17417 163 ft 7 kts 122°
2026-05-06 13:28 24.88578 55.17462 163 ft 7 kts 122°
2026-05-06 13:28 24.88553 55.17506 163 ft 7 kts 122°
2026-05-06 13:28 24.88514 55.17576 163 ft 16 kts 121°
2026-05-06 13:28 24.88451 55.17689 163 ft 17 kts 121°
2026-05-06 13:29 24.88431 55.17876 162 ft 12 kts 31°
2026-05-06 13:29 24.88505 55.17923 162 ft 12 kts 31°
2026-05-06 13:29 24.88576 55.17968 164 ft 11 kts 22°
2026-05-06 13:30 24.88639 55.17949 162 ft 9 kts 311°
2026-05-06 13:30 24.88675 55.17892 162 ft 9 kts 301°
2026-05-06 13:30 24.88728 55.17797 163 ft 27 kts 302°
2026-05-06 13:30 24.88893 55.17500 166 ft 72 kts 301°
2026-05-06 13:31 24.89268 55.16819 161 ft 134 kts 300°
2026-05-06 13:31 24.89845 55.15789 169 ft 179 kts 299°
2026-05-06 13:31 24.90438 55.14568 662 ft 178 kts 301°
2026-05-06 13:31 24.91015 55.13314 1058 ft 194 kts 303°
2026-05-06 13:32 24.91757 55.12115 1735 ft 186 kts 305°
2026-05-06 13:32 24.92505 55.10875 2180 ft 201 kts 302°
2026-05-06 13:32 24.93284 55.09506 2382 ft 224 kts 300°
2026-05-06 13:32 24.94121 55.08015 2928 ft 234 kts 300°
2026-05-06 13:33 24.95000 55.06439 3501 ft 240 kts 299°
2026-05-06 13:33 24.95569 55.04733 3984 ft 240 kts 268°
2026-05-06 13:33 24.95163 55.02995 4585 ft 237 kts 234°
2026-05-06 13:33 24.94002 55.01725 5184 ft 236 kts 213°
2026-05-06 13:34 24.92634 55.00759 5835 ft 239 kts 209°
2026-05-06 13:34 24.91079 55.00027 6306 ft 243 kts 185°
2026-05-06 13:34 24.89429 55.00258 6908 ft 241 kts 155°
2026-05-06 13:34 24.88100 55.01312 7574 ft 241 kts 130°
2026-05-06 13:35 24.87169 55.02835 8247 ft 239 kts 122°
2026-05-06 13:35 24.86375 55.04450 8828 ft 241 kts 109°
2026-05-06 13:35 24.86249 55.06330 9168 ft 260 kts 82°
2026-05-06 13:35 24.86653 55.08338 9442 ft 276 kts 79°
2026-05-06 13:36 24.86798 55.09042 9628 ft 279 kts 80°